This is the latest recevied weather packets stored in our database for station/object OH2HCY. If no packets are shown the sender has not sent any weather packets the latest 1 day(s).
| Time | Temp. | Humidity | Pressure | Rain* | Wind** | Luminosity | Snow |
|---|---|---|---|---|---|---|---|
| 1778054265 | 7.78° C | 37% | 1010.5 hPa | - | - | - | - |
| 1778053761 | 8.33° C | 39% | 1010.3 hPa | - | - | - | - |
| 1778053225 | 8.33° C | 39% | 1010.3 hPa | - | - | - | - |
| 1778052155 | 7.78° C | 44% | 1010.3 hPa | - | - | - | - |
| 1778051060 | 7.78° C | 45% | 1010.4 hPa | - | - | - | - |
| 1778050510 | 7.22° C | 47% | 1010.4 hPa | - | - | - | - |
| 1778048870 | 7.22° C | 49% | 1010.5 hPa | - | - | - | - |
| 1778048330 | 6.67° C | 49% | 1010.4 hPa | - | - | - | - |
| 1778047765 | 6.67° C | 52% | 1010.5 hPa | - | - | - | - |
| 1778047245 | 6.11° C | 54% | 1010.5 hPa | - | - | - | - |
| 1778046720 | 5.56° C | 56% | 1010.5 hPa | - | - | - | - |
| 1778045595 | 5.56° C | 59% | 1010.6 hPa | - | - | - | - |
| 1778044512 | 5° C | 60% | 1010.5 hPa | - | - | - | - |
| 1778043480 | 4.44° C | 62% | 1010.5 hPa | - | - | - | - |
| 1778042950 | 3.89° C | 63% | 1010.5 hPa | - | - | - | - |
| 1778042425 | 3.89° C | 65% | 1010.5 hPa | - | - | - | - |
| 1778041874 | 3.33° C | 65% | 1010.6 hPa | - | - | - | - |
| 1778041295 | 3.33° C | 66% | 1010.6 hPa | - | - | - | - |
| 1778040725 | 2.78° C | 68% | 1010.7 hPa | - | - | - | - |
| 1778040170 | 2.22° C | 70% | 1010.8 hPa | - | - | - | - |
| 1778039650 | 1.67° C | 71% | 1010.8 hPa | - | - | - | - |
| 1778039092 | 1.67° C | 72% | 1010.8 hPa | - | - | - | - |
| 1778038540 | 1.11° C | 72% | 1010.7 hPa | - | - | - | - |
| 1778038015 | 1.11° C | 72% | 1010.7 hPa | - | - | - | - |
| 1778037455 | 1.11° C | 72% | 1010.6 hPa | - | - | - | - |
* Rain since midnight (hover to see other rain measurements)
** Current wind speed in m/s (hover to see current wind gust speed)